カタログに戻る

STARLINK-32379

運用中通信VLEO
NORAD 61851·PAYLOAD·🇺🇸 United States

打ち上げ Nov 7, 2024 から Cape Canaveral Space Force Station

Loading…

次のパス (今後24時間)

TLE

最新Source: CelesTrak SupGP

元期: Sep 14, 2026, 20:34 UTC

1 61851C 24202G   26257.85743056  .00031742  00000+0  11498-2 0  2579
2 61851  43.0010 238.3202 0001533 264.8519 309.2915 15.27560417    16

AllMySatでSTARLINK-32379をリアルタイム追跡

Download on the App Store